AMI457 KBHM-KIAD

Flight info

Callsign AMI457
Flight time 1h 58m
Altitude 41000
Route CHEHA THRSR TWOUP Q22 BURGG Q60 JAXSN DORRN CAVLR6
Aircraft LJ35/M-SGHRWXY/SB1

Departure

Time 2026-05-05 10:18
Airport Birmingham-Shuttlesworth International Airport (KBHM)

Arrival

Time 2026-05-05 12:17
Airport Washington Dulles International Airport (KIAD)
Time Latitude Longitude Altitude Speed Heading
2026-05-05 09:52 33.56412 -86.75058 647 ft 0 kts 140°
2026-05-05 10:05 33.56408 -86.75054 647 ft 0 kts 140°
2026-05-05 10:05 33.56407 -86.75053 647 ft 1 kts 140°
2026-05-05 10:05 33.56405 -86.75040 647 ft 3 kts 66°
2026-05-05 10:05 33.56426 -86.75046 647 ft 5 kts 308°
2026-05-05 10:06 33.56451 -86.75093 647 ft 8 kts 306°
2026-05-05 10:06 33.56493 -86.75152 647 ft 7 kts 304°
2026-05-05 10:06 33.56479 -86.75209 647 ft 9 kts 233°
2026-05-05 10:06 33.56440 -86.75277 647 ft 11 kts 237°
2026-05-05 10:07 33.56394 -86.75359 647 ft 13 kts 236°
2026-05-05 10:07 33.56340 -86.75452 647 ft 14 kts 235°
2026-05-05 10:07 33.56284 -86.75559 647 ft 16 kts 234°
2026-05-05 10:07 33.56218 -86.75671 647 ft 17 kts 235°
2026-05-05 10:08 33.56148 -86.75792 647 ft 18 kts 237°
2026-05-05 10:08 33.56074 -86.75920 647 ft 19 kts 236°
2026-05-05 10:08 33.55999 -86.76053 647 ft 20 kts 236°
2026-05-05 10:08 33.55922 -86.76189 647 ft 20 kts 236°
2026-05-05 10:09 33.55849 -86.76320 647 ft 17 kts 236°
2026-05-05 10:09 33.55786 -86.76428 647 ft 14 kts 237°
2026-05-05 10:09 33.55735 -86.76519 647 ft 12 kts 237°
2026-05-05 10:09 33.55700 -86.76550 647 ft 5 kts 98°
2026-05-05 10:10 33.55726 -86.76522 647 ft 6 kts 35°
2026-05-05 10:10 33.55765 -86.76469 647 ft 11 kts 57°
2026-05-05 10:10 33.55814 -86.76380 647 ft 15 kts 56°
2026-05-05 10:10 33.55877 -86.76267 647 ft 17 kts 57°
2026-05-05 10:11 33.55943 -86.76154 647 ft 18 kts 56°
2026-05-05 10:11 33.56022 -86.76016 647 ft 22 kts 56°
2026-05-05 10:11 33.56113 -86.75856 647 ft 25 kts 56°
2026-05-05 10:11 33.56171 -86.75753 647 ft 14 kts 56°
2026-05-05 10:12 33.56233 -86.75642 647 ft 18 kts 56°
2026-05-05 10:12 33.56297 -86.75530 647 ft 11 kts 56°
2026-05-05 10:12 33.56344 -86.75446 647 ft 11 kts 54°
2026-05-05 10:12 33.56394 -86.75355 647 ft 15 kts 58°
2026-05-05 10:13 33.56444 -86.75268 647 ft 12 kts 55°
2026-05-05 10:13 33.56498 -86.75173 647 ft 16 kts 56°
2026-05-05 10:13 33.56557 -86.75069 647 ft 17 kts 56°
2026-05-05 10:13 33.56626 -86.74948 647 ft 14 kts 58°
2026-05-05 10:14 33.56674 -86.74849 647 ft 0 kts 72°
2026-05-05 10:15 33.56678 -86.74843 647 ft 3 kts 34°
2026-05-05 10:15 33.56710 -86.74850 647 ft 6 kts 346°
2026-05-05 10:15 33.56769 -86.74850 647 ft 11 kts
2026-05-05 10:15 33.56846 -86.74791 647 ft 16 kts 51°
2026-05-05 10:16 33.56918 -86.74662 647 ft 21 kts 57°
2026-05-05 10:16 33.56998 -86.74517 647 ft 7 kts 58°
2026-05-05 10:16 33.57015 -86.74523 647 ft 4 kts 264°
2026-05-05 10:16 33.56994 -86.74534 647 ft 4 kts 202°
2026-05-05 10:17 33.56966 -86.74575 647 ft 22 kts 237°
2026-05-05 10:17 33.56801 -86.74874 647 ft 70 kts 234°
2026-05-05 10:17 33.56359 -86.75629 650 ft 148 kts 236°
2026-05-05 10:17 33.55775 -86.76769 840 ft 173 kts 236°
2026-05-05 10:18 33.55051 -86.78135 1073 ft 215 kts 232°
2026-05-05 10:18 33.54169 -86.79641 1774 ft 223 kts 235°
2026-05-05 10:18 33.53290 -86.81166 2640 ft 220 kts 229°
2026-05-05 10:18 33.52266 -86.81985 3379 ft 147 kts 194°
2026-05-05 10:19 33.51396 -86.82083 4021 ft 120 kts 179°
2026-05-05 10:19 33.50572 -86.81902 4938 ft 126 kts 173°
2026-05-05 10:19 33.49733 -86.81433 5898 ft 141 kts 153°
2026-05-05 10:19 33.48866 -86.80707 6775 ft 167 kts 149°
2026-05-05 10:20 33.47792 -86.79772 7314 ft 211 kts 143°
2026-05-05 10:20 33.46825 -86.78254 7901 ft 251 kts 119°
2026-05-05 10:20 33.46349 -86.76102 8469 ft 284 kts 99°
2026-05-05 10:20 33.46399 -86.73640 9040 ft 297 kts 86°
2026-05-05 10:21 33.46673 -86.71518 9493 ft 229 kts 82°
2026-05-05 10:21 33.46978 -86.69857 9931 ft 183 kts 82°
2026-05-05 10:21 33.47267 -86.68470 10345 ft 163 kts 83°
2026-05-05 10:21 33.47555 -86.67167 10850 ft 161 kts 83°
2026-05-05 10:22 33.47844 -86.65880 11359 ft 157 kts 83°
2026-05-05 10:22 33.48120 -86.64613 11871 ft 158 kts 84°
2026-05-05 10:22 33.48392 -86.63325 12401 ft 160 kts 84°
2026-05-05 10:22 33.48663 -86.62024 12929 ft 161 kts 84°
2026-05-05 10:23 33.48933 -86.60721 13450 ft 161 kts 84°
2026-05-05 10:23 33.49200 -86.59429 13964 ft 159 kts 84°
2026-05-05 10:23 33.49465 -86.58165 14467 ft 155 kts 84°
2026-05-05 10:23 33.49735 -86.56867 15026 ft 169 kts 84°
2026-05-05 10:24 33.50017 -86.55407 15605 ft 191 kts 83°
2026-05-05 10:24 33.50314 -86.53675 15969 ft 231 kts 83°
2026-05-05 10:24 33.50631 -86.51630 16418 ft 268 kts 83°
2026-05-05 10:24 33.50974 -86.49268 16859 ft 305 kts 83°
2026-05-05 10:25 33.51344 -86.46611 17288 ft 340 kts 82°
2026-05-05 10:25 33.51684 -86.43674 17707 ft 371 kts 89°
2026-05-05 10:25 33.51311 -86.40567 18119 ft 395 kts 109°
2026-05-05 10:25 33.50014 -86.37588 18536 ft 415 kts 128°
2026-05-05 10:26 33.48055 -86.34948 18955 ft 433 kts 137°
2026-05-05 10:26 33.45790 -86.32520 19366 ft 434 kts 142°
2026-05-05 10:26 33.43517 -86.30181 19764 ft 430 kts 137°
2026-05-05 10:26 33.41542 -86.27507 20165 ft 428 kts 130°
2026-05-05 10:27 33.39847 -86.24664 20559 ft 425 kts 125°
2026-05-05 10:27 33.38436 -86.21499 20962 ft 424 kts 113°
2026-05-05 10:27 33.37724 -86.18089 21361 ft 422 kts 98°
2026-05-05 10:27 33.37695 -86.14589 21763 ft 420 kts 85°
2026-05-05 10:28 33.38149 -86.11154 22166 ft 417 kts 78°
2026-05-05 10:28 33.38846 -86.07793 22567 ft 415 kts 75°
2026-05-05 10:28 33.39601 -86.04472 22967 ft 412 kts 75°
2026-05-05 10:28 33.40302 -86.01194 23361 ft 412 kts 76°
2026-05-05 10:29 33.40931 -85.97846 23762 ft 414 kts 77°
2026-05-05 10:29 33.41487 -85.94439 24165 ft 419 kts 79°
2026-05-05 10:29 33.41988 -85.90986 24567 ft 423 kts 80°
2026-05-05 10:29 33.42468 -85.87500 24969 ft 425 kts 80°
2026-05-05 10:30 33.42959 -85.83993 25370 ft 427 kts 79°
2026-05-05 10:30 33.43453 -85.80487 25770 ft 429 kts 80°
2026-05-05 10:30 33.43935 -85.76959 26171 ft 429 kts 80°
2026-05-05 10:30 33.44429 -85.73423 26572 ft 430 kts 79°
2026-05-05 10:31 33.44932 -85.69892 26972 ft 430 kts 79°
2026-05-05 10:31 33.45440 -85.66369 27372 ft 429 kts 79°
2026-05-05 10:31 33.45944 -85.62892 27766 ft 429 kts 79°
2026-05-05 10:31 33.46455 -85.59376 28166 ft 428 kts 79°
2026-05-05 10:32 33.46968 -85.55865 28566 ft 427 kts 79°
2026-05-05 10:32 33.47477 -85.52376 28964 ft 425 kts 79°
2026-05-05 10:32 33.47989 -85.48873 29365 ft 428 kts 79°
2026-05-05 10:32 33.48504 -85.45344 29766 ft 430 kts 79°
2026-05-05 10:33 33.49020 -85.41815 30166 ft 432 kts 79°
2026-05-05 10:33 33.49539 -85.38265 30567 ft 433 kts 79°
2026-05-05 10:33 33.50058 -85.34710 30968 ft 434 kts 79°
2026-05-05 10:33 33.50575 -85.31155 31367 ft 436 kts 79°
2026-05-05 10:34 33.51099 -85.27539 31771 ft 439 kts 79°
2026-05-05 10:34 33.51618 -85.23935 32172 ft 441 kts 79°
2026-05-05 10:34 33.52132 -85.20300 32574 ft 442 kts 79°
2026-05-05 10:34 33.52646 -85.16673 32974 ft 442 kts 78°
2026-05-05 10:35 33.53153 -85.13080 33369 ft 443 kts 78°
2026-05-05 10:35 33.53665 -85.09435 33771 ft 442 kts 78°
2026-05-05 10:35 33.53703 -85.09167 33800 ft 442 kts 78°
2026-05-05 10:36 33.54075 -85.06511 34091 ft 441 kts 78°
2026-05-05 10:36 33.54411 -85.04105 34356 ft 440 kts 78°
2026-05-05 10:36 33.54911 -85.00489 34755 ft 438 kts 78°
2026-05-05 10:36 33.55401 -84.96891 35154 ft 436 kts 78°
2026-05-05 10:37 33.55882 -84.93316 35553 ft 433 kts 78°
2026-05-05 10:37 33.56354 -84.89756 35951 ft 431 kts 78°
2026-05-05 10:37 33.56824 -84.86218 36349 ft 428 kts 77°
2026-05-05 10:37 33.57304 -84.82705 36748 ft 425 kts 77°
2026-05-05 10:38 33.57784 -84.79221 37146 ft 422 kts 77°
2026-05-05 10:38 33.58260 -84.75755 37544 ft 419 kts 77°
2026-05-05 10:38 33.58730 -84.72308 37862 ft 418 kts 77°
2026-05-05 10:38 33.59194 -84.68871 38180 ft 416 kts 77°
2026-05-05 10:39 33.59645 -84.65498 38482 ft 415 kts 77°
2026-05-05 10:39 33.60097 -84.62076 38717 ft 415 kts 77°
2026-05-05 10:39 33.60546 -84.58648 38964 ft 415 kts 76°
2026-05-05 10:39 33.61009 -84.55229 39213 ft 415 kts 76°
2026-05-05 10:40 33.61486 -84.51819 39462 ft 415 kts 76°
2026-05-05 10:40 33.61958 -84.48403 39712 ft 414 kts 76°
2026-05-05 10:40 33.62507 -84.45016 39961 ft 411 kts 72°
2026-05-05 10:40 33.63302 -84.41733 40211 ft 406 kts 65°
2026-05-05 10:41 33.64349 -84.38612 40460 ft 402 kts 60°
2026-05-05 10:41 33.65580 -84.35616 40710 ft 398 kts 56°
2026-05-05 10:41 33.66903 -84.32713 40958 ft 396 kts 54°
2026-05-05 10:41 33.68259 -84.29845 41181 ft 395 kts 54°
2026-05-05 10:42 33.70959 -84.24038 41364 ft 402 kts 56°
2026-05-05 10:42 33.72279 -84.21100 41376 ft 407 kts 56°
2026-05-05 10:43 33.74926 -84.14964 41378 ft 418 kts 58°
2026-05-05 10:43 33.77590 -84.08659 41378 ft 427 kts 57°
2026-05-05 10:44 33.80346 -84.02289 41379 ft 435 kts 57°
2026-05-05 10:44 33.83172 -83.95780 41382 ft 443 kts 57°
2026-05-05 10:45 33.86014 -83.89141 41385 ft 449 kts 57°
2026-05-05 10:45 33.88949 -83.82465 41387 ft 452 kts 55°
2026-05-05 10:46 33.92370 -83.76104 41390 ft 453 kts 49°
2026-05-05 10:46 33.96190 -83.70055 41392 ft 455 kts 46°
2026-05-05 10:47 34.00091 -83.64022 41393 ft 457 kts 47°
2026-05-05 10:47 34.03924 -83.57880 41393 ft 458 kts 48°
2026-05-05 10:48 34.07714 -83.51686 41393 ft 459 kts 48°
2026-05-05 10:48 34.11465 -83.45506 41392 ft 459 kts 48°
2026-05-05 10:49 34.15252 -83.39287 41391 ft 459 kts 48°
2026-05-05 10:49 34.19034 -83.33086 41385 ft 457 kts 47°
2026-05-05 10:50 34.22767 -83.26949 41382 ft 455 kts 48°
2026-05-05 10:50 34.26496 -83.20776 41381 ft 454 kts 47°
2026-05-05 10:51 34.30223 -83.14631 41381 ft 452 kts 47°
2026-05-05 10:51 34.33927 -83.08488 41380 ft 451 kts 47°
2026-05-05 10:52 34.37628 -83.02353 41380 ft 450 kts 47°
2026-05-05 10:52 34.41317 -82.96216 41380 ft 449 kts 47°
2026-05-05 10:53 34.44972 -82.90135 41380 ft 448 kts 47°
2026-05-05 10:53 34.48634 -82.84029 41380 ft 448 kts 47°
2026-05-05 10:54 34.52258 -82.77979 41379 ft 447 kts 47°
2026-05-05 10:54 34.55931 -82.71784 41379 ft 447 kts 47°
2026-05-05 10:55 34.59510 -82.65691 41379 ft 446 kts 47°
2026-05-05 10:55 34.63130 -82.59555 41379 ft 445 kts 47°
2026-05-05 10:56 34.66766 -82.53482 41379 ft 445 kts 47°
2026-05-05 10:56 34.70379 -82.47369 41382 ft 444 kts 47°
2026-05-05 10:57 34.73999 -82.41282 41385 ft 444 kts 47°
2026-05-05 10:57 34.77580 -82.35229 41386 ft 444 kts 47°
2026-05-05 10:58 34.81174 -82.29135 41386 ft 443 kts 47°
2026-05-05 10:58 34.84776 -82.23030 41386 ft 443 kts 47°
2026-05-05 10:59 34.88372 -82.16935 41386 ft 443 kts 47°
2026-05-05 10:59 34.91978 -82.10836 41386 ft 443 kts 47°
2026-05-05 11:00 34.95569 -82.04780 41386 ft 443 kts 47°
2026-05-05 11:00 34.99176 -81.98688 41386 ft 443 kts 46°
2026-05-05 11:01 35.02714 -81.92523 41382 ft 444 kts 47°
2026-05-05 11:01 35.06139 -81.86254 41382 ft 444 kts 49°
2026-05-05 11:02 35.09508 -81.79921 41381 ft 444 kts 49°
2026-05-05 11:02 35.12852 -81.73603 41381 ft 444 kts 49°
2026-05-05 11:03 35.16199 -81.67269 41381 ft 444 kts 49°
2026-05-05 11:03 35.19550 -81.60934 41381 ft 443 kts 49°
2026-05-05 11:04 35.22897 -81.54597 41381 ft 444 kts 49°
2026-05-05 11:04 35.26240 -81.48247 41381 ft 443 kts 49°
2026-05-05 11:05 35.29557 -81.41922 41381 ft 443 kts 49°
2026-05-05 11:05 35.32890 -81.35579 41382 ft 443 kts 49°
2026-05-05 11:06 35.36198 -81.29197 41382 ft 443 kts 49°
2026-05-05 11:06 35.39489 -81.22819 41381 ft 443 kts 49°
2026-05-05 11:07 35.42783 -81.16424 41385 ft 443 kts 50°
2026-05-05 11:07 35.46073 -81.10108 41387 ft 442 kts 49°
2026-05-05 11:08 35.49387 -81.03764 41387 ft 442 kts 49°
2026-05-05 11:08 35.52678 -80.97418 41388 ft 441 kts 49°
2026-05-05 11:09 35.55963 -80.91042 41399 ft 441 kts 49°
2026-05-05 11:09 35.59252 -80.84685 41405 ft 440 kts 49°
2026-05-05 11:10 35.62542 -80.78334 41400 ft 440 kts 49°
2026-05-05 11:10 35.65835 -80.71974 41400 ft 440 kts 49°
2026-05-05 11:11 35.69099 -80.65649 41396 ft 440 kts 49°
2026-05-05 11:11 35.72392 -80.59289 41395 ft 439 kts 49°
2026-05-05 11:12 35.75646 -80.52919 41402 ft 440 kts 49°
2026-05-05 11:12 35.78902 -80.46554 41391 ft 438 kts 48°
2026-05-05 11:13 35.82133 -80.40219 41395 ft 439 kts 49°
2026-05-05 11:13 35.85375 -80.33841 41402 ft 438 kts 48°
2026-05-05 11:14 35.88609 -80.27476 41402 ft 438 kts 49°
2026-05-05 11:14 35.91847 -80.21102 41394 ft 437 kts 49°
2026-05-05 11:15 35.95053 -80.14790 41398 ft 436 kts 48°
2026-05-05 11:15 35.98317 -80.08488 41404 ft 435 kts 47°
2026-05-05 11:16 36.01626 -80.02233 41391 ft 435 kts 47°
2026-05-05 11:16 36.04932 -79.95943 41390 ft 435 kts 47°
2026-05-05 11:17 36.08224 -79.89665 41392 ft 435 kts 47°
2026-05-05 11:17 36.11583 -79.83470 41405 ft 432 kts 46°
2026-05-05 11:18 36.15037 -79.77378 41389 ft 431 kts 45°
2026-05-05 11:18 36.18504 -79.71320 41392 ft 431 kts 45°
2026-05-05 11:19 36.21978 -79.65252 41387 ft 432 kts 45°
2026-05-05 11:19 36.25418 -79.59213 41388 ft 432 kts 45°
2026-05-05 11:20 36.28850 -79.53087 41389 ft 432 kts 45°
2026-05-05 11:20 36.32296 -79.46992 41393 ft 432 kts 45°
2026-05-05 11:21 36.35154 -79.41896 41400 ft 432 kts 45°
2026-05-05 11:21 36.38584 -79.35758 41399 ft 432 kts 45°
2026-05-05 11:22 36.42583 -79.28647 41406 ft 431 kts 45°
2026-05-05 11:22 36.45454 -79.23565 41404 ft 432 kts 45°
2026-05-05 11:23 36.48895 -79.17449 41402 ft 431 kts 45°
2026-05-05 11:23 36.52326 -79.11335 41409 ft 432 kts 46°
2026-05-05 11:24 36.55738 -79.05188 41414 ft 431 kts 45°
2026-05-05 11:24 36.59137 -78.99041 41418 ft 431 kts 46°
2026-05-05 11:25 36.62529 -78.92881 41416 ft 431 kts 46°
2026-05-05 11:25 36.65926 -78.86728 41413 ft 431 kts 46°
2026-05-05 11:26 36.69341 -78.80592 41403 ft 429 kts 44°
2026-05-05 11:26 36.73205 -78.75061 41415 ft 416 kts 34°
2026-05-05 11:27 36.77526 -78.70424 41415 ft 410 kts 29°
2026-05-05 11:27 36.81987 -78.65990 41402 ft 410 kts 30°
2026-05-05 11:28 36.86368 -78.61390 41408 ft 413 kts 32°
2026-05-05 11:28 36.90683 -78.56636 41417 ft 413 kts 32°
2026-05-05 11:29 36.95000 -78.51905 41418 ft 413 kts 32°
2026-05-05 11:29 36.99310 -78.47150 41408 ft 413 kts 31°
2026-05-05 11:30 37.03654 -78.42452 41405 ft 413 kts 32°
2026-05-05 11:30 37.07996 -78.37733 41408 ft 413 kts 32°
2026-05-05 11:31 37.12326 -78.32991 41403 ft 414 kts 32°
2026-05-05 11:31 37.16625 -78.28275 41409 ft 413 kts 32°
2026-05-05 11:32 37.20975 -78.23531 41416 ft 413 kts 31°
2026-05-05 11:32 37.25325 -78.18813 41412 ft 413 kts 32°
2026-05-05 11:33 37.29662 -78.14126 41417 ft 414 kts 32°
2026-05-05 11:33 37.33993 -78.09336 41420 ft 414 kts 32°
2026-05-05 11:34 37.38327 -78.04540 41429 ft 414 kts 32°
2026-05-05 11:34 37.42673 -77.99762 41414 ft 415 kts 32°
2026-05-05 11:35 37.46921 -77.95079 41410 ft 384 kts 32°
2026-05-05 11:35 37.48821 -77.92908 41354 ft 354 kts 32°
2026-05-05 11:35 37.50606 -77.90872 40837 ft 338 kts 30°
2026-05-05 11:35 37.52384 -77.89089 40366 ft 315 kts 24°
2026-05-05 11:36 37.54156 -77.87625 39915 ft 295 kts 18°
2026-05-05 11:36 37.55899 -77.86435 39467 ft 276 kts 14°
2026-05-05 11:36 37.57585 -77.85418 39019 ft 262 kts 12°
2026-05-05 11:36 37.59203 -77.84492 38566 ft 250 kts 12°
2026-05-05 11:37 37.60755 -77.83597 38107 ft 241 kts 12°
2026-05-05 11:37 37.62248 -77.82724 37647 ft 233 kts 12°
2026-05-05 11:37 37.63698 -77.81884 37185 ft 226 kts 11°
2026-05-05 11:37 37.65108 -77.81076 36719 ft 219 kts 11°
2026-05-05 11:38 37.66486 -77.80296 36255 ft 214 kts 11°
2026-05-05 11:38 37.67830 -77.79541 35797 ft 209 kts 10°
2026-05-05 11:38 37.69149 -77.78804 35341 ft 205 kts 11°
2026-05-05 11:38 37.70444 -77.78084 34885 ft 201 kts 11°
2026-05-05 11:39 37.71703 -77.77389 34435 ft 198 kts 10°
2026-05-05 11:39 37.72960 -77.76701 33979 ft 195 kts 11°
2026-05-05 11:39 37.74199 -77.76029 33526 ft 193 kts 10°
2026-05-05 11:39 37.75423 -77.75370 33075 ft 190 kts 10°
2026-05-05 11:40 37.76639 -77.74719 32622 ft 189 kts 11°
2026-05-05 11:40 37.77841 -77.74061 32170 ft 187 kts 11°
2026-05-05 11:40 37.79033 -77.73405 31718 ft 186 kts 11°
2026-05-05 11:40 37.80216 -77.72756 31267 ft 185 kts 11°
2026-05-05 11:41 37.81398 -77.72113 30815 ft 184 kts 11°
2026-05-05 11:41 37.82575 -77.71479 30364 ft 183 kts 11°
2026-05-05 11:41 37.83749 -77.70856 29914 ft 183 kts 11°
2026-05-05 11:41 37.84925 -77.70241 29465 ft 183 kts 11°
2026-05-05 11:42 37.86089 -77.69631 29021 ft 184 kts 11°
2026-05-05 11:42 37.87273 -77.69003 28571 ft 185 kts 12°
2026-05-05 11:42 37.88461 -77.68375 28122 ft 186 kts 12°
2026-05-05 11:42 37.89655 -77.67733 27673 ft 187 kts 12°
2026-05-05 11:43 37.90858 -77.67086 27224 ft 189 kts 13°
2026-05-05 11:43 37.92071 -77.66423 26774 ft 190 kts 13°
2026-05-05 11:43 37.93292 -77.65759 26326 ft 192 kts 13°
2026-05-05 11:43 37.94525 -77.65096 25878 ft 193 kts 13°
2026-05-05 11:44 37.95768 -77.64423 25430 ft 195 kts 14°
2026-05-05 11:44 37.96996 -77.63757 24992 ft 197 kts 14°
2026-05-05 11:44 37.98294 -77.63062 24534 ft 199 kts 14°
2026-05-05 11:44 37.99581 -77.62384 24085 ft 201 kts 14°
2026-05-05 11:45 38.00880 -77.61698 23637 ft 203 kts 15°
2026-05-05 11:45 38.02172 -77.61007 23196 ft 205 kts 15°
2026-05-05 11:45 38.03494 -77.60302 22749 ft 207 kts 15°
2026-05-05 11:45 38.04818 -77.59555 22303 ft 210 kts 17°
2026-05-05 11:46 38.06149 -77.58768 21855 ft 212 kts 18°
2026-05-05 11:46 38.07486 -77.57960 21406 ft 213 kts 18°
2026-05-05 11:46 38.08826 -77.57134 20959 ft 215 kts 19°
2026-05-05 11:46 38.10178 -77.56302 20510 ft 216 kts 19°
2026-05-05 11:47 38.11521 -77.55480 20067 ft 217 kts 18°
2026-05-05 11:47 38.12885 -77.54641 19618 ft 218 kts 19°
2026-05-05 11:47 38.14253 -77.53787 19171 ft 219 kts 19°
2026-05-05 11:47 38.15625 -77.52929 18722 ft 220 kts 19°
2026-05-05 11:48 38.18390 -77.51214 17825 ft 221 kts 19°
2026-05-05 11:48 38.19773 -77.50352 17376 ft 222 kts 20°
2026-05-05 11:48 38.21163 -77.49476 16922 ft 223 kts 20°
2026-05-05 11:49 38.22550 -77.48655 16478 ft 222 kts 16°
2026-05-05 11:49 38.24012 -77.47971 16024 ft 221 kts 13°
2026-05-05 11:49 38.25473 -77.47365 15571 ft 221 kts 12°
2026-05-05 11:49 38.26943 -77.46794 15122 ft 221 kts 11°
2026-05-05 11:50 38.28403 -77.46253 14678 ft 221 kts 10°
2026-05-05 11:50 38.29886 -77.45730 14229 ft 221 kts 10°
2026-05-05 11:50 38.31375 -77.45217 13781 ft 222 kts 10°
2026-05-05 11:50 38.32868 -77.44706 13334 ft 223 kts 10°
2026-05-05 11:51 38.34365 -77.44183 12885 ft 224 kts 11°
2026-05-05 11:51 38.35870 -77.43661 12433 ft 224 kts 11°
2026-05-05 11:51 38.37379 -77.43144 11976 ft 224 kts 11°
2026-05-05 11:51 38.38885 -77.42635 11524 ft 224 kts 10°
2026-05-05 11:52 38.40390 -77.42127 11076 ft 224 kts 10°
2026-05-05 11:52 38.41900 -77.41614 10620 ft 225 kts 11°
2026-05-05 11:52 38.43408 -77.41078 10175 ft 225 kts 11°
2026-05-05 11:52 38.44922 -77.40532 9716 ft 227 kts 11°
2026-05-05 11:53 38.46444 -77.39996 9263 ft 228 kts 10°
2026-05-05 11:53 38.47973 -77.39452 8811 ft 228 kts 11°
2026-05-05 11:53 38.49502 -77.38925 8369 ft 227 kts 10°
2026-05-05 11:53 38.51021 -77.38437 7934 ft 228 kts
2026-05-05 11:54 38.52570 -77.37961 7499 ft 228 kts
2026-05-05 11:54 38.54116 -77.37504 7042 ft 228 kts
2026-05-05 11:54 38.55660 -77.37043 6595 ft 228 kts 10°
2026-05-05 11:54 38.57212 -77.36630 6174 ft 226 kts
2026-05-05 11:55 38.58743 -77.36402 5895 ft 218 kts
2026-05-05 11:55 38.60232 -77.36269 5667 ft 210 kts
2026-05-05 11:55 38.61672 -77.36178 5433 ft 205 kts 360°
2026-05-05 11:55 38.63082 -77.36099 5202 ft 202 kts 360°
2026-05-05 11:56 38.64486 -77.36024 4956 ft 201 kts 360°
2026-05-05 11:56 38.65862 -77.35957 4724 ft 199 kts 360°
2026-05-05 11:56 38.67236 -77.35898 4507 ft 197 kts
2026-05-05 11:56 38.68610 -77.35848 4277 ft 198 kts 360°
2026-05-05 11:57 38.69985 -77.35803 4062 ft 198 kts 360°
2026-05-05 11:57 38.71357 -77.35765 3828 ft 196 kts
2026-05-05 11:57 38.72718 -77.35735 3598 ft 196 kts 360°
2026-05-05 11:57 38.74087 -77.35716 3359 ft 195 kts 360°
2026-05-05 11:58 38.75407 -77.35704 3168 ft 185 kts 360°
2026-05-05 11:58 38.76674 -77.35685 3043 ft 180 kts
2026-05-05 11:58 38.77902 -77.35663 3004 ft 174 kts
2026-05-05 11:58 38.79124 -77.35645 3030 ft 179 kts
2026-05-05 11:59 38.80415 -77.35628 3030 ft 193 kts
2026-05-05 11:59 38.81772 -77.35601 3021 ft 195 kts
2026-05-05 11:59 38.83126 -77.35560 3014 ft 193 kts
2026-05-05 11:59 38.84450 -77.35517 3028 ft 192 kts
2026-05-05 12:00 38.85787 -77.35476 3008 ft 193 kts
2026-05-05 12:00 38.87147 -77.35436 3009 ft 204 kts
2026-05-05 12:00 38.88565 -77.35397 3005 ft 204 kts
2026-05-05 12:00 38.89977 -77.35357 2996 ft 200 kts
2026-05-05 12:01 38.91354 -77.35319 2977 ft 196 kts
2026-05-05 12:01 38.92700 -77.35273 3007 ft 190 kts
2026-05-05 12:01 38.94015 -77.35217 2997 ft 188 kts
2026-05-05 12:01 38.95318 -77.35157 2983 ft 186 kts
2026-05-05 12:02 38.96600 -77.35096 3005 ft 184 kts
2026-05-05 12:02 38.97875 -77.35040 2995 ft 183 kts
2026-05-05 12:02 38.99146 -77.34988 2997 ft 182 kts
2026-05-05 12:02 39.00410 -77.34936 3002 ft 181 kts
2026-05-05 12:03 39.01669 -77.34887 3001 ft 181 kts
2026-05-05 12:03 39.02911 -77.34840 2996 ft 182 kts
2026-05-05 12:03 39.04193 -77.34794 3001 ft 187 kts
2026-05-05 12:03 39.05507 -77.34746 3005 ft 191 kts
2026-05-05 12:04 39.06848 -77.34698 3001 ft 195 kts
2026-05-05 12:04 39.08216 -77.34650 3007 ft 197 kts
2026-05-05 12:04 39.09600 -77.34601 3015 ft 200 kts
2026-05-05 12:04 39.11000 -77.34554 3008 ft 203 kts
2026-05-05 12:05 39.12415 -77.34508 3008 ft 204 kts
2026-05-05 12:05 39.13845 -77.34465 3017 ft 205 kts
2026-05-05 12:05 39.15274 -77.34425 3014 ft 206 kts
2026-05-05 12:05 39.16708 -77.34389 3012 ft 206 kts
2026-05-05 12:06 39.18127 -77.34352 3018 ft 206 kts
2026-05-05 12:06 39.19570 -77.34314 3011 ft 207 kts
2026-05-05 12:06 39.21009 -77.34276 3009 ft 208 kts
2026-05-05 12:06 39.22456 -77.34240 3010 ft 208 kts
2026-05-05 12:07 39.23908 -77.34240 2997 ft 209 kts 350°
2026-05-05 12:07 39.25161 -77.35049 3005 ft 198 kts 312°
2026-05-05 12:07 39.25907 -77.36477 3023 ft 189 kts 291°
2026-05-05 12:07 39.26418 -77.38033 3000 ft 188 kts 285°
2026-05-05 12:08 39.26846 -77.39614 2996 ft 186 kts 283°
2026-05-05 12:08 39.27226 -77.41205 3001 ft 184 kts 276°
2026-05-05 12:08 39.27042 -77.42746 2999 ft 169 kts 236°
2026-05-05 12:08 39.26172 -77.43656 3004 ft 161 kts 195°
2026-05-05 12:09 39.25077 -77.43764 3011 ft 161 kts 178°
2026-05-05 12:09 39.24316 -77.43690 3005 ft 162 kts 175°
2026-05-05 12:09 39.22821 -77.43510 3004 ft 163 kts 176°
2026-05-05 12:09 39.21690 -77.43402 3002 ft 163 kts 176°
2026-05-05 12:10 39.20941 -77.43348 3001 ft 163 kts 178°
2026-05-05 12:10 39.19809 -77.43287 3005 ft 162 kts 178°
2026-05-05 12:10 39.18699 -77.43244 3002 ft 157 kts 179°
2026-05-05 12:10 39.17631 -77.43217 2992 ft 151 kts 180°
2026-05-05 12:11 39.16582 -77.43200 3014 ft 151 kts 180°
2026-05-05 12:11 39.15531 -77.43186 2992 ft 149 kts 180°
2026-05-05 12:11 39.14507 -77.43174 3000 ft 148 kts 180°
2026-05-05 12:11 39.13466 -77.43189 3002 ft 150 kts 181°
2026-05-05 12:12 39.12413 -77.43219 2993 ft 154 kts 181°
2026-05-05 12:12 39.11341 -77.43232 3003 ft 154 kts 181°
2026-05-05 12:12 39.10263 -77.43242 3004 ft 155 kts 181°
2026-05-05 12:12 39.09186 -77.43262 3010 ft 155 kts 181°
2026-05-05 12:13 39.08109 -77.43275 2995 ft 152 kts 181°
2026-05-05 12:13 39.07061 -77.43289 2989 ft 148 kts 181°
2026-05-05 12:13 39.06011 -77.43306 2826 ft 154 kts 180°
2026-05-05 12:13 39.04965 -77.43322 2672 ft 138 kts 180°
2026-05-05 12:14 39.04041 -77.43335 2213 ft 139 kts 181°
2026-05-05 12:14 39.03091 -77.43348 1914 ft 135 kts 180°
2026-05-05 12:14 39.02385 -77.43405 1596 ft 139 kts 184°
2026-05-05 12:14 39.01388 -77.43586 1312 ft 134 kts 181°
2026-05-05 12:15 39.00470 -77.43622 1150 ft 138 kts 178°
2026-05-05 12:15 38.99480 -77.43600 1194 ft 142 kts 178°
2026-05-05 12:15 38.98572 -77.43585 1123 ft 117 kts 175°
2026-05-05 12:15 38.97792 -77.43594 789 ft 109 kts 177°
2026-05-05 12:16 38.97044 -77.43596 588 ft 109 kts 176°
2026-05-05 12:16 38.96259 -77.43588 499 ft 116 kts 176°
2026-05-05 12:16 38.95470 -77.43600 377 ft 110 kts 176°
2026-05-05 12:16 38.94768 -77.43605 315 ft 67 kts 181°
2026-05-05 12:17 38.94550 -77.43614 315 ft 18 kts 183°
2026-05-05 12:17 38.94503 -77.43624 315 ft 0 kts 200°
2026-05-05 12:17 38.94499 -77.43626 315 ft 2 kts 202°
2026-05-05 12:17 38.94477 -77.43638 315 ft 5 kts 205°
2026-05-05 12:18 38.94432 -77.43666 315 ft 10 kts 206°
2026-05-05 12:18 38.94359 -77.43716 315 ft 14 kts 210°
2026-05-05 12:18 38.94285 -77.43777 315 ft 11 kts 214°
2026-05-05 12:18 38.94223 -77.43823 315 ft 10 kts 209°
2026-05-05 12:19 38.94178 -77.43875 315 ft 8 kts 245°
2026-05-05 12:19 38.94178 -77.43944 315 ft 8 kts 295°
2026-05-05 12:19 38.94220 -77.43977 315 ft 7 kts 356°
2026-05-05 12:19 38.94269 -77.43976 315 ft 7 kts
2026-05-05 12:20 38.94319 -77.43975 315 ft 7 kts
2026-05-05 12:20 38.94367 -77.43973 315 ft 7 kts
2026-05-05 12:20 38.94416 -77.43973 315 ft 7 kts 360°
2026-05-05 12:20 38.94464 -77.43973 315 ft 7 kts
2026-05-05 12:21 38.94511 -77.43972 315 ft 7 kts
2026-05-05 12:21 38.94558 -77.43972 315 ft 7 kts 359°
2026-05-05 12:21 38.94604 -77.43971 315 ft 7 kts
2026-05-05 12:21 38.94650 -77.43970 315 ft 7 kts
2026-05-05 12:22 38.94696 -77.43970 315 ft 7 kts 360°
2026-05-05 12:22 38.94742 -77.43969 315 ft 6 kts
2026-05-05 12:22 38.94786 -77.43968 315 ft 6 kts
2026-05-05 12:22 38.94831 -77.43967 315 ft 6 kts
2026-05-05 12:23 38.94875 -77.43967 315 ft 6 kts 359°
2026-05-05 12:23 38.94918 -77.43967 315 ft 6 kts
2026-05-05 12:23 38.94962 -77.43966 315 ft 6 kts
2026-05-05 12:23 38.95005 -77.43965 315 ft 6 kts 360°
2026-05-05 12:24 38.95048 -77.43964 315 ft 6 kts 360°
2026-05-05 12:24 38.95091 -77.43964 315 ft 6 kts
2026-05-05 12:24 38.95134 -77.43963 315 ft 6 kts
2026-05-05 12:24 38.95176 -77.43962 315 ft 6 kts
2026-05-05 12:25 38.95219 -77.43963 315 ft 6 kts
2026-05-05 12:25 38.95261 -77.43962 315 ft 6 kts 360°
2026-05-05 12:25 38.95302 -77.43962 315 ft 6 kts
2026-05-05 12:25 38.95341 -77.43977 315 ft 6 kts 314°
2026-05-05 12:26 38.95353 -77.44030 315 ft 6 kts 269°
2026-05-05 12:26 38.95353 -77.44049 315 ft 0 kts 271°